• In Belarus
  • List of Countries
  • For 7 days
  • Water Temperature
  • Satellite Maps
  • Weather Map
  • Weather Widgets
  • user-avatar
    Login

    Hourly Weather Yeghegnadzor

    Today, 24 February, Saturday

    Time Temperature Precipitation Wind Pressure Humidity
    00:00 +1°C° 0 mm 1 mps 647 mmHg 64%
    01:00 +1°C° 0 mm 1 mps 647 mmHg 64%
    02:00 +1°C° 0 mm 1 mps 646 mmHg 64%
    03:00 +1°C° 0 mm 1 mps 646 mmHg 64%
    04:00 0°C° 0 mm 1 mps 646 mmHg 65%
    05:00 0°C° 0 mm 1 mps 646 mmHg 66%
    06:00 0°C° 0 mm 1 mps 646 mmHg 67%
    07:00 +1°C° 0 mm 1 mps 646 mmHg 66%
    08:00 +3°C° 0 mm 1 mps 646 mmHg 65%
    09:00 +4°C° 0 mm 1 mps 647 mmHg 65%
    10:00 +5°C° 0 mm 1 mps 647 mmHg 65%
    11:00 +6°C° 0 mm 1 mps 647 mmHg 65%
    12:00 +6°C° 0 mm 1 mps 646 mmHg 65%
    13:00 +7°C° 0 mm 1 mps 646 mmHg 64%
    14:00 +7°C° 0 mm 1 mps 646 mmHg 63%
    15:00 +7°C° 0 mm 1 mps 646 mmHg 62%
    16:00 +6°C° 0 mm 1 mps 645 mmHg 64%
    17:00 +3°C° 0 mm 0 mps 645 mmHg 67%
    18:00 +2°C° 0 mm 0 mps 645 mmHg 69%
    19:00 +2°C° 0 mm 1 mps 645 mmHg 69%
    20:00 +2°C° 0 mm 1 mps 645 mmHg 68%
    21:00 +2°C° 0 mm 1 mps 645 mmHg 68%
    22:00 +1°C° 0 mm 1 mps 645 mmHg 68%
    23:00 +1°C° 0 mm 1 mps 646 mmHg 67%

    Tomorrow, 25 February, Sunday

    Time Temperature Precipitation Wind Pressure Humidity
    00:00 +1°C° 0 mm 1 mps 646 mmHg 67%
    01:00 +1°C° 0 mm 1 mps 646 mmHg 67%
    02:00 0°C° 0 mm 1 mps 646 mmHg 67%
    03:00 0°C° 0 mm 1 mps 646 mmHg 66%
    04:00 0°C° 0 mm 1 mps 646 mmHg 68%
    05:00 -2°C° 0 mm 2 mps 646 mmHg 70%
    06:00 -2°C° 0 mm 2 mps 646 mmHg 71%
    07:00 -1°C° 0 mm 2 mps 646 mmHg 71%
    08:00 +2°C° 0 mm 2 mps 646 mmHg 70%
    09:00 +3°C° 0 mm 2 mps 647 mmHg 69%
    10:00 +4°C° 0 mm 2 mps 647 mmHg 69%
    11:00 +5°C° 0 mm 2 mps 646 mmHg 68%
    12:00 +5°C° 0 mm 2 mps 646 mmHg 67%
    13:00 +6°C° 0 mm 2 mps 646 mmHg 65%
    14:00 +6°C° 0 mm 2 mps 645 mmHg 64%
    15:00 +6°C° 0 mm 2 mps 645 mmHg 63%
    16:00 +5°C° 0 mm 2 mps 645 mmHg 65%
    17:00 +4°C° 0 mm 2 mps 645 mmHg 66%
    18:00 +3°C° 0 mm 2 mps 645 mmHg 68%
    19:00 +3°C° 0 mm 2 mps 645 mmHg 69%
    20:00 +2°C° 0 mm 2 mps 645 mmHg 70%
    21:00 +2°C° 0 mm 2 mps 645 mmHg 70%
    22:00 +2°C° 0 mm 2 mps 645 mmHg 71%
    23:00 +2°C° 0 mm 2 mps 645 mmHg 71%

    Day after tomorrow, 26 February, Monday

    Time Temperature Precipitation Wind Pressure Humidity
    00:00 +1°C° 0 mm 2 mps 645 mmHg 72%
    01:00 +1°C° 0 mm 3 mps 645 mmHg 71%
    02:00 +1°C° 0 mm 3 mps 645 mmHg 71%
    03:00 +1°C° 0 mm 3 mps 645 mmHg 71%
    04:00 +1°C° 0.1 mm 3 mps 645 mmHg 72%
    05:00 +1°C° 0.1 mm 3 mps 645 mmHg 73%
    06:00 +2°C° 0.1 mm 2 mps 645 mmHg 73%
    07:00 +3°C° 0.1 mm 2 mps 645 mmHg 73%
    08:00 +3°C° 0.1 mm 2 mps 646 mmHg 72%
    09:00 +4°C° 0.1 mm 2 mps 646 mmHg 72%
    10:00 +4°C° 0.3 mm 2 mps 646 mmHg 73%
    11:00 +5°C° 0.3 mm 2 mps 646 mmHg 75%
    12:00 +5°C° 0.3 mm 2 mps 645 mmHg 77%
    13:00 +5°C° 0.1 mm 2 mps 645 mmHg 76%
    14:00 +6°C° 0.1 mm 2 mps 645 mmHg 75%
    15:00 +6°C° 0.1 mm 2 mps 645 mmHg 74%
    16:00 +6°C° 0.1 mm 1 mps 645 mmHg 75%
    17:00 +6°C° 0.1 mm 1 mps 645 mmHg 77%
    18:00 +5°C° 0.1 mm 1 mps 645 mmHg 79%
    19:00 +4°C° 0 mm 1 mps 645 mmHg 79%
    20:00 +4°C° 0 mm 1 mps 645 mmHg 79%
    21:00 +3°C° 0 mm 1 mps 646 mmHg 80%
    22:00 +3°C° 0 mm 1 mps 646 mmHg 79%
    23:00 +3°C° 0 mm 1 mps 646 mmHg 77%

    27 February, Tuesday

    Time Temperature Precipitation Wind Pressure Humidity
    00:00 +3°C° 0 mm 1 mps 646 mmHg 76%
    01:00 +3°C° 0 mm 1 mps 646 mmHg 76%
    02:00 +3°C° 0 mm 1 mps 646 mmHg 75%
    03:00 +3°C° 0 mm 1 mps 646 mmHg 75%
    04:00 +2°C° 0 mm 1 mps 646 mmHg 75%
    05:00 +2°C° 0 mm 1 mps 646 mmHg 75%
    06:00 +2°C° 0 mm 1 mps 646 mmHg 75%
    07:00 +3°C° 0 mm 1 mps 647 mmHg 73%
    08:00 +4°C° 0 mm 1 mps 648 mmHg 72%
    09:00 +5°C° 0 mm 1 mps 648 mmHg 70%
    10:00 +6°C° 0.1 mm 1 mps 648 mmHg 71%
    11:00 +6°C° 0.1 mm 2 mps 648 mmHg 72%
    12:00 +6°C° 0.1 mm 2 mps 648 mmHg 73%
    13:00 +7°C° 0.1 mm 2 mps 648 mmHg 72%
    14:00 +8°C° 0.1 mm 1 mps 648 mmHg 71%
    15:00 +8°C° 0.1 mm 1 mps 648 mmHg 70%
    16:00 +7°C° 0 mm 1 mps 648 mmHg 72%
    17:00 +7°C° 0 mm 1 mps 648 mmHg 74%
    18:00 +6°C° 0 mm 1 mps 648 mmHg 76%
    19:00 +5°C° 0 mm 1 mps 648 mmHg 76%
    20:00 +5°C° 0 mm 1 mps 648 mmHg 76%
    21:00 +4°C° 0 mm 1 mps 649 mmHg 75%
    22:00 +4°C° 0 mm 1 mps 649 mmHg 75%
    23:00 +3°C° 0 mm 2 mps 649 mmHg 75%

    28 February, Wednesday

    Time Temperature Precipitation Wind Pressure Humidity
    00:00 +2°C° 0 mm 2 mps 649 mmHg 74%
    01:00 +2°C° 0 mm 2 mps 649 mmHg 75%
    02:00 +3°C° 0 mm 1 mps 649 mmHg 76%
    03:00 +3°C° 0 mm 1 mps 649 mmHg 76%
    04:00 +3°C° 0 mm 1 mps 649 mmHg 77%
    05:00 +2°C° 0 mm 1 mps 649 mmHg 77%
    06:00 +2°C° 0 mm 1 mps 649 mmHg 78%
    07:00 +4°C° 0 mm 1 mps 650 mmHg 75%
    08:00 +5°C° 0 mm 1 mps 651 mmHg 72%
    09:00 +6°C° 0 mm 1 mps 651 mmHg 69%
    10:00 +7°C° 0 mm 1 mps 651 mmHg 68%
    11:00 +8°C° 0 mm 1 mps 651 mmHg 66%
    12:00 +9°C° 0 mm 1 mps 651 mmHg 65%
    13:00 +9°C° 0 mm 1 mps 651 mmHg 63%
    14:00 +9°C° 0 mm 1 mps 650 mmHg 61%
    15:00 +10°C° 0 mm 1 mps 650 mmHg 59%
    16:00 +8°C° 0 mm 1 mps 650 mmHg 62%
    17:00 +7°C° 0 mm 1 mps 650 mmHg 65%
    18:00 +4°C° 0 mm 0 mps 649 mmHg 68%
    19:00 +5°C° 0 mm 1 mps 650 mmHg 68%
    20:00 +5°C° 0 mm 1 mps 650 mmHg 68%
    21:00 +5°C° 0 mm 1 mps 650 mmHg 67%
    22:00 +5°C° 0 mm 1 mps 650 mmHg 67%
    23:00 +4°C° 0 mm 1 mps 650 mmHg 67%

    1 March, Thursday

    Time Temperature Precipitation Wind Pressure Humidity
    00:00 +4°C° 0 mm 1 mps 650 mmHg 66%
    01:00 +3°C° 0 mm 2 mps 650 mmHg 65%
    02:00 +3°C° 0 mm 2 mps 650 mmHg 64%
    03:00 +2°C° 0 mm 2 mps 650 mmHg 63%
    04:00 +2°C° 0 mm 2 mps 650 mmHg 63%
    05:00 +2°C° 0 mm 2 mps 649 mmHg 63%
    06:00 +2°C° 0 mm 2 mps 649 mmHg 62%
    07:00 +3°C° 0 mm 2 mps 649 mmHg 60%
    08:00 +4°C° 0 mm 2 mps 650 mmHg 59%
    09:00 +7°C° 0 mm 1 mps 650 mmHg 57%
    10:00 +6°C° 0 mm 2 mps 649 mmHg 57%
    11:00 +7°C° 0 mm 2 mps 649 mmHg 57%
    12:00 +8°C° 0 mm 2 mps 649 mmHg 58%
    13:00 +8°C° 0 mm 2 mps 648 mmHg 56%
    14:00 +8°C° 0 mm 2 mps 648 mmHg 55%
    15:00 +9°C° 0 mm 2 mps 647 mmHg 53%
    16:00 +7°C° 0 mm 2 mps 647 mmHg 55%
    17:00 +6°C° 0 mm 2 mps 647 mmHg 58%
    18:00 +5°C° 0 mm 2 mps 646 mmHg 60%
    19:00 +5°C° 0 mm 2 mps 647 mmHg 60%
    20:00 +5°C° 0 mm 2 mps 647 mmHg 60%
    21:00 +5°C° 0 mm 2 mps 647 mmHg 59%
    22:00 +5°C° 0.1 mm 2 mps 647 mmHg 60%
    23:00 +4°C° 0.1 mm 2 mps 647 mmHg 61%
    Show more